When you browse on this site, cookies collect data to enhance your experience and personalize the content and advertising you see.
Visit our Privacy Policy to learn more. By continuing to use the site, you agree to this use of cookies and data.
  • In Österreich
  • Länderverzeichnis
  • Für 7 Tage
  • Wassertemperatur
  • Satellitenkarten
  • Wetterkarte
  • News
  • Widgets
  • user-avatar
    Anmelden

    Stündliche Wetter Zagorbashe

    Heute, 22 Mai, Mittwoch

    Zeit Temperatur Niederschläge Wind Luftdruck Luftfeuchtigkeit
    00:00 +15°C° 0 mm 2 m/S 745 mmHg 96%
    01:00 +14°C° 0 mm 2 m/S 745 mmHg 97%
    02:00 +13°C° 0 mm 2 m/S 745 mmHg 97%
    03:00 +13°C° 0 mm 2 m/S 745 mmHg 97%
    04:00 +13°C° 0 mm 2 m/S 745 mmHg 97%
    05:00 +13°C° 0 mm 1 m/S 745 mmHg 97%
    06:00 +14°C° 0 mm 2 m/S 745 mmHg 89%
    07:00 +16°C° 0 mm 2 m/S 745 mmHg 81%
    08:00 +18°C° 0 mm 2 m/S 745 mmHg 72%
    09:00 +19°C° 0 mm 2 m/S 745 mmHg 65%
    10:00 +21°C° 0 mm 2 m/S 745 mmHg 58%
    11:00 +23°C° 0 mm 2 m/S 745 mmHg 51%
    12:00 +23°C° 0.1 mm 2 m/S 745 mmHg 51%
    13:00 +24°C° 0.1 mm 2 m/S 745 mmHg 50%
    14:00 +24°C° 0.1 mm 1 m/S 744 mmHg 50%
    15:00 +24°C° 0.2 mm 1 m/S 744 mmHg 51%
    16:00 +24°C° 0.2 mm 1 m/S 744 mmHg 52%
    17:00 +24°C° 0.2 mm 1 m/S 744 mmHg 52%
    18:00 +22°C° 0.2 mm 1 m/S 744 mmHg 62%
    19:00 +20°C° 0.2 mm 1 m/S 744 mmHg 71%
    20:00 +18°C° 0.2 mm 1 m/S 744 mmHg 80%
    21:00 +16°C° 0 mm 1 m/S 744 mmHg 82%
    22:00 +14°C° 0 mm 0 m/S 744 mmHg 84%
    23:00 +14°C° 0 mm 0 m/S 744 mmHg 86%

    Morgen, 23 Mai, Donnerstag

    Zeit Temperatur Niederschläge Wind Luftdruck Luftfeuchtigkeit
    00:00 +13°C° 0 mm 0 m/S 744 mmHg 87%
    01:00 +13°C° 0 mm 0 m/S 744 mmHg 88%
    02:00 +13°C° 0 mm 0 m/S 744 mmHg 88%
    03:00 +13°C° 0 mm 0 m/S 744 mmHg 89%
    04:00 +13°C° 0 mm 0 m/S 744 mmHg 89%
    05:00 +13°C° 0 mm 0 m/S 744 mmHg 89%
    06:00 +15°C° 0 mm 0 m/S 744 mmHg 83%
    07:00 +17°C° 0 mm 0 m/S 745 mmHg 77%
    08:00 +21°C° 0 mm 1 m/S 745 mmHg 70%
    09:00 +22°C° 0 mm 1 m/S 745 mmHg 64%
    10:00 +22°C° 0 mm 0 m/S 745 mmHg 58%
    11:00 +24°C° 0 mm 0 m/S 745 mmHg 52%
    12:00 +26°C° 0 mm 1 m/S 744 mmHg 49%
    13:00 +26°C° 0 mm 1 m/S 744 mmHg 47%
    14:00 +27°C° 0 mm 1 m/S 744 mmHg 44%
    15:00 +26°C° 0 mm 1 m/S 744 mmHg 45%
    16:00 +26°C° 0 mm 1 m/S 744 mmHg 47%
    17:00 +26°C° 0 mm 1 m/S 744 mmHg 48%
    18:00 +24°C° 0 mm 1 m/S 744 mmHg 57%
    19:00 +21°C° 0 mm 2 m/S 744 mmHg 65%
    20:00 +19°C° 0 mm 2 m/S 744 mmHg 73%
    21:00 +19°C° 0 mm 1 m/S 744 mmHg 77%
    22:00 +18°C° 0 mm 1 m/S 744 mmHg 81%
    23:00 +16°C° 0 mm 1 m/S 744 mmHg 84%

    übermorgen, 24 Mai, Freitag

    Zeit Temperatur Niederschläge Wind Luftdruck Luftfeuchtigkeit
    00:00 +16°C° 0 mm 1 m/S 744 mmHg 86%
    01:00 +15°C° 0 mm 1 m/S 744 mmHg 88%
    02:00 +15°C° 0 mm 1 m/S 744 mmHg 89%
    03:00 +15°C° 0 mm 1 m/S 745 mmHg 90%
    04:00 +15°C° 0 mm 1 m/S 745 mmHg 90%
    05:00 +15°C° 0 mm 1 m/S 745 mmHg 91%
    06:00 +18°C° 0 mm 1 m/S 745 mmHg 85%
    07:00 +20°C° 0 mm 1 m/S 745 mmHg 78%
    08:00 +22°C° 0 mm 1 m/S 745 mmHg 72%
    09:00 +23°C° 0.3 mm 2 m/S 745 mmHg 70%
    10:00 +23°C° 0.3 mm 2 m/S 745 mmHg 68%
    11:00 +24°C° 0.3 mm 2 m/S 745 mmHg 66%
    12:00 +24°C° 0.5 mm 2 m/S 745 mmHg 66%
    13:00 +24°C° 0.5 mm 3 m/S 745 mmHg 66%
    14:00 +24°C° 0.5 mm 3 m/S 744 mmHg 66%
    15:00 +24°C° 0.6 mm 3 m/S 744 mmHg 69%
    16:00 +22°C° 0.6 mm 3 m/S 744 mmHg 72%
    17:00 +22°C° 0.6 mm 3 m/S 744 mmHg 75%
    18:00 +20°C° 0.1 mm 3 m/S 744 mmHg 80%
    19:00 +19°C° 0.1 mm 3 m/S 744 mmHg 85%
    20:00 +17°C° 0.1 mm 3 m/S 744 mmHg 90%
    21:00 +16°C° 0 mm 2 m/S 744 mmHg 91%
    22:00 +16°C° 0 mm 2 m/S 744 mmHg 92%
    23:00 +15°C° 0 mm 2 m/S 744 mmHg 94%

    25 Mai, Samstag

    Zeit Temperatur Niederschläge Wind Luftdruck Luftfeuchtigkeit
    00:00 +15°C° 0 mm 2 m/S 744 mmHg 95%
    01:00 +14°C° 0 mm 2 m/S 744 mmHg 96%
    02:00 +13°C° 0 mm 3 m/S 744 mmHg 97%
    03:00 +13°C° 0.5 mm 3 m/S 744 mmHg 96%
    04:00 +12°C° 0.5 mm 3 m/S 744 mmHg 96%
    05:00 +12°C° 0.5 mm 3 m/S 744 mmHg 95%
    06:00 +13°C° 0.1 mm 3 m/S 744 mmHg 90%
    07:00 +13°C° 0.1 mm 4 m/S 744 mmHg 85%
    08:00 +14°C° 0.1 mm 4 m/S 744 mmHg 80%
    09:00 +17°C° 0 mm 4 m/S 745 mmHg 68%
    10:00 +17°C° 0 mm 5 m/S 745 mmHg 56%
    11:00 +20°C° 0 mm 5 m/S 745 mmHg 43%
    12:00 +20°C° 0 mm 5 m/S 744 mmHg 44%
    13:00 +21°C° 0 mm 4 m/S 744 mmHg 44%
    14:00 +22°C° 0 mm 4 m/S 744 mmHg 44%
    15:00 +22°C° 0 mm 4 m/S 744 mmHg 48%
    16:00 +21°C° 0 mm 4 m/S 744 mmHg 52%
    17:00 +21°C° 0 mm 4 m/S 743 mmHg 57%
    18:00 +19°C° 0.4 mm 3 m/S 743 mmHg 67%
    19:00 +17°C° 0.4 mm 3 m/S 743 mmHg 78%
    20:00 +16°C° 0.4 mm 2 m/S 743 mmHg 89%
    21:00 +15°C° 0 mm 2 m/S 744 mmHg 91%
    22:00 +14°C° 0 mm 2 m/S 744 mmHg 92%
    23:00 +12°C° 0 mm 3 m/S 744 mmHg 94%

    26 Mai, Sonntag

    Zeit Temperatur Niederschläge Wind Luftdruck Luftfeuchtigkeit
    00:00 +12°C° 0 mm 3 m/S 744 mmHg 95%
    01:00 +11°C° 0 mm 3 m/S 744 mmHg 96%
    02:00 +11°C° 0 mm 3 m/S 744 mmHg 96%
    03:00 +10°C° 0 mm 2 m/S 745 mmHg 96%
    04:00 +10°C° 0 mm 2 m/S 745 mmHg 96%
    05:00 +9°C° 0 mm 2 m/S 745 mmHg 95%
    06:00 +10°C° 0.1 mm 3 m/S 745 mmHg 91%
    07:00 +11°C° 0.1 mm 3 m/S 745 mmHg 88%
    08:00 +12°C° 0.1 mm 3 m/S 745 mmHg 84%
    09:00 +13°C° 0.2 mm 4 m/S 745 mmHg 78%
    10:00 +14°C° 0.2 mm 5 m/S 745 mmHg 72%
    11:00 +15°C° 0.2 mm 5 m/S 745 mmHg 67%
    12:00 +15°C° 0.1 mm 5 m/S 744 mmHg 66%
    13:00 +15°C° 0.1 mm 5 m/S 744 mmHg 66%
    14:00 +16°C° 0.1 mm 5 m/S 744 mmHg 66%
    15:00 +16°C° 0.1 mm 5 m/S 743 mmHg 65%
    16:00 +16°C° 0.1 mm 5 m/S 743 mmHg 65%
    17:00 +16°C° 0.1 mm 6 m/S 743 mmHg 65%
    18:00 +14°C° 0.1 mm 5 m/S 743 mmHg 70%
    19:00 +13°C° 0.1 mm 4 m/S 743 mmHg 75%
    20:00 +12°C° 0.1 mm 3 m/S 743 mmHg 80%
    21:00 +12°C° 0 mm 4 m/S 743 mmHg 81%
    22:00 +11°C° 0 mm 4 m/S 743 mmHg 82%
    23:00 +11°C° 0 mm 4 m/S 744 mmHg 83%

    27 Mai, Montag

    Zeit Temperatur Niederschläge Wind Luftdruck Luftfeuchtigkeit
    00:00 +11°C° 0 mm 4 m/S 744 mmHg 83%
    01:00 +10°C° 0 mm 4 m/S 744 mmHg 84%
    02:00 +10°C° 0 mm 4 m/S 744 mmHg 85%
    03:00 +10°C° 0.1 mm 4 m/S 744 mmHg 86%
    04:00 +8°C° 0.1 mm 4 m/S 744 mmHg 87%
    05:00 +8°C° 0.1 mm 4 m/S 744 mmHg 88%
    06:00 +9°C° 0 mm 5 m/S 745 mmHg 79%
    07:00 +9°C° 0 mm 5 m/S 745 mmHg 70%
    08:00 +10°C° 0 mm 6 m/S 745 mmHg 62%
    09:00 +13°C° 0 mm 6 m/S 745 mmHg 59%
    10:00 +14°C° 0 mm 6 m/S 746 mmHg 56%
    11:00 +15°C° 0 mm 6 m/S 746 mmHg 53%
    12:00 +16°C° 0 mm 6 m/S 746 mmHg 53%
    13:00 +16°C° 0 mm 6 m/S 746 mmHg 52%
    14:00 +17°C° 0 mm 6 m/S 746 mmHg 52%
    15:00 +17°C° 0 mm 5 m/S 746 mmHg 52%
    16:00 +17°C° 0 mm 5 m/S 746 mmHg 53%
    17:00 +17°C° 0 mm 5 m/S 746 mmHg 54%
    18:00 +17°C° 0 mm 4 m/S 746 mmHg 60%
    19:00 +16°C° 0 mm 2 m/S 746 mmHg 67%
    20:00 +14°C° 0 mm 1 m/S 746 mmHg 74%
    21:00 +14°C° 0 mm 2 m/S 746 mmHg 78%
    22:00 +14°C° 0 mm 2 m/S 746 mmHg 81%
    23:00 +13°C° 0 mm 3 m/S 746 mmHg 85%
    Mehr zeigen